Wind_Speed
13 12 11 10 9 8 8 8 9 10 11 11 12 12 13 13 13 13 13 12 12 11 11 10 9 9 9 8 8 8 8 8 8 7 8 7 7 6 4 3 2 1 0
11 9 8 7 6 6 6 7 8 8 9 9 10 10 11 11 11 11 11 11 10 10 9 8 8 7 7 7 7 7 7 7 7 6 6 6 6 6 5 3 2 1 1
8 7 6 6 5 5 6 6 7 7 7 8 8 9 9 9 9 9 9 9 9 8 8 7 6 6 6 6 6 6 6 6 6 5 5 5 5 5 5 4 3 2 1
6 6 5 5 5 5 5 6 6 6 7 7 8 8 8 8 8 8 8 8 8 7 6 6 5 5 4 4 5 5 5 5 5 5 4 4 4 4 4 4 3 2 1
5 4 5 5 5 5 5 5 6 6 6 7 7 7 7 7 7 7 7 6 6 6 6 5 5 4 4 4 4 5 5 5 5 4 3 3 3 3 3 3 2 2 2
3 3 4 4 4 5 5 5 6 6 7 7 7 7 7 7 6 6 5 5 5 5 6 6 6 6 5 5 5 5 6 6 5 4 4 3 4 3 3 4 3 3 3
3 2 1 2 4 5 5 5 6 6 7 7 7 7 7 7 6 5 5 5 5 5 6 6 6 7 7 7 6 7 7 8 7 6 6 5 5 5 5 5 4 4 4
4 3 2 3 4 5 6 6 6 7 7 7 7 7 7 7 7 5 5 5 5 5 6 6 7 8 8 8 8 8 9 9 9 9 8 7 7 7 6 6 6 6 5
8 7 6 6 7 8 8 8 8 8 7 8 8 8 8 8 8 7 6 6 6 6 7 7 7 9 9 9 9 9 10 10 11 11 10 10 9 9 9 8 8 7 6
10 10 10 10 10 11 11 11 10 10 10 10 10 10 10 10 9 9 8 8 8 8 8 9 9 10 10 10 10 10 10 11 12 12 12 12 12 12 11 10 10 10 9
12 12 12 13 13 13 13 13 13 13 13 13 12 12 12 11 11 11 10 10 11 11 11 10 11 11 11 11 11 11 11 12 12 13 13 13 14 14 14 13 12 12 11
13 13 13 14 14 14 14 15 15 15 15 15 15 14 13 13 13 13 13 13 13 13 13 13 13 13 12 11 11 11 12 12 12 13 13 14 15 15 15 15 14 14 13
13 13 13 14 14 15 15 16 16 16 16 16 16 16 16 16 16 16 16 16 16 16 16 15 15 15 14 14 13 12 12 12 13 13 14 14 15 16 16 17 17 16 15
14 14 15 16 16 17 17 18 18 18 18 18 18 18 18 18 18 18 19 19 19 19 19 18 18 18 18 17 16 15 14 14 14 15 15 15 16 16 17 18 18 18 18
18 18 19 19 20 20 20 21 21 21 21 21 21 21 21 21 21 22 22 22 22 22 22 22 22 21 21 20 19 19 18 17 16 16 17 17 17 18 18 18 19 19 20
23 23 23 24 24 25 25 25 26 26 25 26 25 25 25 25 25 25 26 26 26 26 26 25 25 25 24 23 22 22 22 21 20 19 19 19 19 19 19 20 20 20 21
28 28 28 28 29 29 30 30 30 30 29 30 30 30 29 30 30 30 30 30 29 29 29 29 28 28 27 26 25 25 24 24 24 23 22 22 22 21 21 21 21 21 22
33 33 33 33 33 34 34 35 34 34 34 34 35 34 34 34 35 34 34 34 33 32 32 31 31 30 29 29 28 28 27 27 27 26 26 25 24 24 23 23 23 22 23
38 38 38 38 38 39 39 39 39 39 38 38 39 38 39 39 39 39 38 38 37 36 35 34 34 33 32 31 30 30 30 30 30 29 29 28 27 27 26 26 25 25 25
43 43 42 42 42 43 43 43 43 43 42 42 42 42 43 43 43 43 42 42 41 39 38 37 37 36 36 34 33 33 33 33 32 32 31 31 30 29 28 28 27 27 27
47 47 46 46 46 46 46 46 45 45 45 45 45 45 46 46 46 46 46 45 45 43 42 41 40 40 38 37 35 35 35 35 34 34 34 33 32 31 30 29 29 28 28
47 47 47 48 48 49 49 49 48 47 47 46 46 45 45 47 48 47 47 47 47 46 44 44 43 41 40 39 37 36 35 36 35 35 35 34 33 33 31 31 30 30 30
44 45 45 46 47 49 49 49 48 48 47 45 46 46 46 47 48 48 48 49 48 47 45 45 45 42 41 40 39 37 36 36 36 34 34 34 33 32 32 31 31 31 31
42 43 45 46 47 47 48 49 49 48 48 47 47 47 46 47 47 47 48 49 49 48 47 46 45 43 43 41 38 36 35 35 34 32 33 34 33 32 31 31 31 31 31
43 44 46 47 48 49 50 50 50 51 50 49 48 47 46 46 47 47 48 47 47 47 44 41 39 40 39 37 37 35 34 33 32 31 31 32 32 32 32 31 30 30 30
44 45 46 48 49 50 51 52 53 53 53 52 50 49 48 48 48 48 47 47 46 46 42 40 39 37 35 33 33 32 32 32 31 31 30 30 30 31 32 32 30 29 29
Wind_Direction
122 120 112 102 92 80 71 69 71 72 71 69 67 67 67 67 68 69 70 71 71 70 69 66 63 61 58 53 51 49 47 45 43 39 35 31 28 24 20 15 3 344 11
121 117 109 98 85 69 57 55 57 61 63 63 60 59 59 58 59 62 64 65 66 66 65 63 59 57 53 49 47 47 46 45 42 39 35 32 30 27 23 15 359 329 273
119 110 97 83 69 54 42 41 46 50 53 53 52 51 50 48 49 52 55 57 59 60 60 58 53 47 41 36 36 36 38 41 43 40 35 31 29 27 24 18 10 349 295
112 99 80 63 50 39 31 31 34 39 43 44 43 43 41 40 40 40 42 47 49 49 49 47 42 33 22 14 13 15 19 25 33 35 29 23 21 18 16 14 12 4 336
108 87 65 46 32 24 20 20 23 25 29 32 32 31 30 30 30 30 31 35 38 36 34 32 27 16 3 353 349 349 354 1 9 17 14 4 0 359 353 346 343 341 333
126 94 62 36 14 5 3 2 6 8 12 16 18 19 18 17 16 16 18 21 24 22 17 12 8 0 350 341 336 332 333 336 340 344 344 337 330 329 329 330 316 306 297
175 148 63 12 348 341 340 342 346 351 357 3 6 7 7 5 4 3 3 0 3 5 4 0 357 352 346 334 325 321 319 320 318 318 316 312 308 306 307 311 312 300 281
227 236 267 293 305 310 314 317 324 333 343 349 351 353 354 354 352 346 340 338 337 341 345 347 349 347 343 336 328 322 316 315 311 307 305 301 297 296 296 298 297 302 287
251 261 272 281 288 294 298 302 307 312 321 328 332 333 336 336 334 329 320 314 312 317 323 328 333 337 338 336 329 323 317 312 310 305 301 296 291 290 290 291 292 293 296
260 267 273 277 283 287 290 292 294 299 305 311 316 316 318 320 319 316 310 305 303 303 308 314 316 324 329 332 329 323 318 314 310 303 298 295 292 288 286 286 287 286 285
267 272 274 275 278 281 284 286 288 292 297 301 304 306 307 309 309 307 302 299 296 295 296 302 307 311 316 322 325 324 321 317 313 308 300 296 294 291 286 285 285 283 280
272 274 275 277 278 280 281 283 286 290 293 296 298 299 300 301 303 301 297 294 292 291 290 292 296 302 305 309 315 320 320 320 319 315 308 301 296 294 289 284 283 283 282
273 274 277 278 278 280 281 282 284 287 289 292 295 296 297 298 298 298 295 291 289 289 287 287 289 294 295 297 303 311 316 319 319 317 314 308 301 296 292 286 282 281 281
276 277 279 279 279 279 280 280 281 283 285 287 289 291 293 294 295 295 293 290 288 287 285 285 285 287 288 289 294 301 307 312 313 313 313 308 303 296 291 288 283 279 278
278 279 279 279 279 279 279 279 280 282 283 283 284 286 287 289 289 290 290 287 285 285 283 281 281 281 283 284 287 292 298 303 306 307 309 307 304 300 293 287 283 279 276
278 278 277 277 278 278 277 278 279 281 281 281 281 283 283 284 284 285 285 284 283 282 280 279 278 278 279 280 281 286 290 295 299 301 302 304 303 301 297 290 285 280 276
276 276 276 275 276 276 276 276 278 278 278 279 279 280 281 280 280 281 281 281 280 279 278 277 275 275 275 276 277 280 285 289 292 295 296 299 300 299 298 293 288 283 277
275 275 275 275 275 275 275 275 276 277 277 277 277 278 278 278 277 278 278 278 277 277 276 274 273 273 273 274 275 277 280 283 286 289 292 295 297 296 295 294 290 285 280
275 275 274 274 273 273 273 273 273 274 275 274 274 275 276 276 276 275 275 275 275 274 273 272 271 271 271 272 273 275 277 280 282 286 289 292 294 294 293 292 290 286 282
273 274 274 273 273 272 272 272 271 271 271 271 271 272 273 274 274 273 273 274 273 272 271 271 269 269 269 269 270 271 274 277 280 283 286 289 291 291 291 290 288 287 283
271 271 271 271 271 271 271 269 268 269 269 269 269 270 271 272 273 274 273 273 273 272 270 269 269 269 269 268 269 271 272 275 278 281 285 287 289 290 289 289 287 285 282
268 269 269 270 269 269 269 267 267 267 268 268 269 270 272 273 275 275 274 273 273 271 271 270 271 269 269 269 269 270 272 275 278 281 285 287 288 289 289 288 287 285 282
267 267 268 268 269 269 269 268 268 270 270 271 271 271 272 274 274 274 275 272 270 269 269 270 270 271 270 269 269 269 271 273 277 281 284 287 289 289 289 288 287 284 282
266 267 267 268 269 270 270 271 272 273 273 274 274 273 273 274 274 274 274 272 269 268 267 269 268 267 269 268 269 269 271 272 274 279 284 287 288 289 289 288 287 285 282
268 268 268 268 269 270 271 272 273 274 274 275 275 276 277 277 277 277 274 271 269 268 267 266 264 265 265 264 268 268 270 272 275 278 281 285 287 288 288 287 287 286 284
271 270 270 270 270 270 271 272 273 274 275 275 276 276 278 278 278 278 275 272 267 263 263 262 261 260 263 264 265 266 268 273 276 279 281 282 284 286 287 286 285 284 283
Height
5937 5937 5937 5937 5937 5936 5935 5934 5933 5932 5931 5930 5929 5928 5926 5925 5924 5922 5921 5920 5919 5917 5916 5915 5914 5913 5911 5910 5908 5907 5906 5904 5903 5902 5901 5900 5899 5898 5897 5897 5896 5896 5896
5939 5939 5938 5938 5938 5937 5936 5935 5934 5933 5932 5931 5930 5929 5927 5926 5925 5924 5922 5921 5920 5919 5917 5916 5915 5914 5912 5911 5909 5908 5906 5905 5904 5903 5902 5901 5900 5899 5898 5897 5897 5897 5896
5941 5940 5939 5939 5939 5938 5937 5936 5935 5934 5933 5932 5930 5929 5928 5927 5926 5925 5923 5922 5921 5919 5918 5917 5916 5914 5913 5912 5910 5909 5907 5906 5905 5903 5902 5901 5900 5899 5899 5898 5897 5897 5896
5941 5941 5940 5940 5940 5939 5938 5937 5936 5935 5933 5932 5931 5930 5928 5927 5926 5925 5924 5922 5921 5920 5919 5917 5916 5915 5913 5912 5911 5909 5908 5907 5905 5904 5903 5902 5901 5900 5899 5898 5897 5897 5896
5942 5941 5941 5940 5940 5939 5938 5937 5936 5935 5933 5932 5931 5930 5928 5927 5926 5925 5924 5922 5921 5920 5919 5917 5916 5915 5913 5912 5911 5909 5908 5907 5905 5904 5903 5902 5901 5900 5899 5898 5897 5897 5896
5941 5941 5940 5940 5940 5939 5938 5937 5936 5935 5933 5932 5931 5930 5929 5927 5926 5925 5923 5922 5921 5920 5919 5917 5916 5915 5913 5912 5910 5909 5908 5906 5905 5904 5903 5902 5901 5900 5899 5898 5897 5896 5896
5941 5940 5939 5939 5939 5939 5938 5937 5936 5934 5933 5932 5931 5930 5928 5927 5926 5924 5923 5922 5921 5920 5918 5917 5916 5914 5913 5911 5910 5908 5907 5906 5904 5903 5902 5901 5900 5899 5898 5897 5896 5895 5895
5939 5939 5938 5938 5938 5938 5937 5936 5935 5934 5933 5932 5930 5929 5928 5927 5925 5924 5923 5922 5921 5919 5918 5917 5915 5914 5912 5911 5909 5907 5906 5904 5903 5902 5901 5900 5899 5898 5897 5896 5895 5894 5893
5938 5938 5937 5937 5936 5936 5936 5935 5934 5933 5932 5931 5930 5929 5927 5926 5925 5924 5922 5921 5920 5919 5917 5916 5915 5913 5911 5910 5908 5906 5905 5903 5902 5900 5899 5898 5897 5896 5895 5894 5894 5893 5892
5936 5936 5935 5935 5934 5934 5934 5933 5932 5931 5930 5929 5928 5927 5926 5924 5923 5922 5921 5920 5918 5917 5916 5915 5913 5912 5910 5909 5907 5905 5903 5901 5900 5898 5897 5896 5895 5894 5893 5892 5892 5891 5890
5934 5933 5933 5932 5932 5932 5931 5930 5930 5929 5928 5927 5926 5924 5923 5922 5921 5920 5919 5918 5917 5916 5914 5913 5912 5911 5909 5907 5905 5903 5901 5900 5898 5896 5895 5894 5893 5892 5891 5890 5889 5889 5888
5931 5930 5930 5930 5929 5929 5928 5927 5927 5926 5925 5924 5923 5922 5921 5920 5918 5917 5916 5915 5914 5913 5912 5911 5910 5908 5907 5905 5904 5902 5900 5898 5896 5894 5892 5891 5890 5889 5888 5887 5887 5886 5886
5928 5928 5927 5927 5926 5925 5925 5924 5923 5922 5921 5920 5919 5919 5918 5917 5915 5914 5913 5912 5911 5910 5909 5908 5907 5906 5904 5903 5901 5899 5897 5895 5893 5891 5890 5888 5887 5886 5885 5884 5884 5883 5883
5925 5925 5924 5923 5923 5922 5921 5920 5919 5918 5917 5916 5916 5915 5914 5913 5912 5911 5910 5909 5908 5907 5905 5905 5904 5902 5901 5900 5898 5896 5895 5893 5891 5889 5887 5886 5884 5883 5882 5881 5880 5880 5879
5922 5921 5921 5920 5919 5918 5917 5916 5915 5914 5913 5912 5911 5911 5910 5909 5908 5907 5906 5904 5903 5902 5901 5900 5899 5898 5897 5896 5895 5893 5891 5889 5887 5886 5884 5883 5881 5879 5878 5877 5876 5876 5875
5918 5918 5917 5916 5915 5914 5913 5912 5910 5909 5908 5907 5906 5906 5905 5904 5903 5902 5901 5900 5899 5897 5896 5895 5894 5893 5892 5891 5890 5889 5887 5885 5884 5882 5880 5879 5877 5876 5874 5873 5872 5871 5871
5913 5912 5912 5911 5910 5909 5907 5906 5905 5904 5902 5901 5900 5899 5898 5897 5897 5896 5895 5894 5893 5892 5890 5889 5888 5887 5887 5886 5885 5884 5882 5881 5879 5877 5876 5875 5873 5872 5870 5869 5868 5867 5866
5907 5906 5905 5904 5903 5902 5901 5900 5899 5898 5896 5895 5893 5893 5891 5890 5889 5888 5888 5887 5885 5885 5884 5883 5882 5881 5880 5879 5879 5878 5877 5875 5874 5872 5871 5869 5868 5867 5866 5864 5863 5862 5862
5900 5899 5898 5898 5897 5895 5894 5893 5892 5890 5889 5888 5886 5885 5884 5882 5881 5880 5880 5879 5877 5877 5876 5875 5875 5874 5873 5872 5872 5871 5870 5869 5868 5866 5865 5864 5862 5861 5860 5859 5858 5857 5856
5892 5891 5890 5889 5888 5887 5886 5885 5884 5882 5881 5879 5878 5877 5875 5873 5872 5871 5871 5870 5869 5868 5867 5866 5866 5865 5865 5864 5864 5864 5863 5862 5861 5860 5858 5857 5856 5855 5854 5853 5852 5851 5850
5883 5882 5881 5880 5879 5878 5877 5876 5874 5873 5871 5870 5869 5868 5866 5864 5863 5862 5861 5861 5859 5858 5857 5857 5857 5857 5856 5855 5856 5856 5855 5854 5853 5852 5851 5850 5849 5848 5846 5845 5844 5844 5843
5873 5872 5872 5871 5870 5869 5868 5866 5865 5863 5862 5861 5860 5858 5857 5855 5853 5852 5852 5851 5849 5848 5848 5848 5847 5847 5848 5847 5848 5848 5848 5847 5845 5845 5843 5842 5841 5840 5839 5838 5837 5836 5835
5864 5863 5862 5862 5861 5859 5858 5856 5855 5854 5852 5851 5850 5849 5847 5844 5843 5842 5841 5840 5839 5838 5838 5838 5838 5838 5839 5839 5839 5840 5840 5839 5838 5837 5835 5834 5833 5832 5831 5830 5829 5828 5827
5854 5854 5853 5852 5851 5849 5848 5846 5845 5844 5843 5842 5839 5838 5836 5834 5832 5831 5830 5829 5828 5828 5828 5829 5829 5829 5830 5830 5831 5831 5832 5831 5831 5830 5828 5826 5825 5824 5823 5822 5821 5820 5819
5844 5843 5843 5842 5840 5839 5838 5836 5834 5834 5832 5830 5828 5827 5825 5823 5822 5821 5820 5819 5818 5818 5818 5818 5819 5819 5820 5821 5822 5822 5823 5823 5822 5822 5822 5819 5817 5816 5815 5814 5813 5812 5812
5833 5832 5831 5830 5829 5828 5826 5825 5822 5821 5819 5818 5817 5816 5815 5813 5812 5810 5809 5809 5808 5808 5809 5809 5810 5810 5812 5812 5813 5814 5815 5815 5814 5814 5814 5812 5810 5808 5807 5806 5806 5805 5804